Location: Владивосток
(43.1151°N, 131.8856°E)
Time: 23:56:33
(UTC+10:00)

COSMOS 2251 DEB - Visible Passes

Search period start: 12 July 2024 00:00
Search period end: 22 July 2024 00:00
Orbit: 751 x 790 km, 74.1° (Epoch: 10 July)

Date Brightness Start Highest point End Pass type
(mag) Time Alt. Az. Time Alt. Az. Time Alt. Az.
12 Jul ? 02:43:26 10° NNE 02:46:50 17° NE 02:50:12 10° E visible
12 Jul ? 04:24:14 10° NNW 04:29:34 77° WSW 04:34:55 10° SSE visible
13 Jul ? 02:08:53 10° NNE 02:10:09 11° NE 02:11:24 10° ENE visible
13 Jul ? 03:48:01 10° NNW 03:53:21 66° ENE 03:58:40 10° SSE visible
14 Jul ? 03:11:58 10° N 03:17:01 41° ENE 03:22:03 10° SE visible
14 Jul ? 04:54:29 10° NW 04:58:54 27° W 05:03:19 10° SSW visible
15 Jul ? 02:36:06 10° N 02:40:34 26° ENE 02:45:02 10° ESE visible
15 Jul ? 04:17:48 10° NNW 04:22:52 44° WSW 04:27:55 10° S visible
16 Jul ? 02:00:31 10° NNE 02:04:00 17° NE 02:07:30 10° E visible
16 Jul ? 03:41:23 10° NNW 03:46:44 74° WSW 03:51:16 15° S visible
17 Jul ? 01:25:46 10° NNE 01:27:20 11° NE 01:28:54 10° ENE visible
17 Jul ? 03:05:09 10° NNW 03:10:30 69° ENE 03:14:29 18° SSE visible
17 Jul ? 04:48:54 10° WNW 04:51:59 16° W 04:54:44 11° SW visible
18 Jul ? 02:29:05 10° N 02:34:09 42° ENE 02:37:53 17° SE visible
18 Jul ? 04:11:40 10° NW 04:16:02 26° W 04:18:09 20° SW visible
19 Jul ? 01:53:11 10° N 01:57:43 27° ENE 02:01:26 14° ESE visible
19 Jul ? 03:34:57 10° NNW 03:39:59 43° WSW 03:41:42 33° SW visible
20 Jul ? 01:17:34 10° NNE 01:21:10 18° NE 01:24:45 10° E visible
20 Jul ? 02:58:31 10° NNW 03:03:51 71° WSW 03:05:21 47° S visible
21 Jul ? 00:42:39 10° NNE 00:44:29 12° NE 00:46:18 10° ENE visible
21 Jul ? 02:22:15 10° NNW 02:27:37 71° ENE 02:29:05 47° SE visible
21 Jul ? 04:06:07 10° WNW 04:09:04 15° W 04:09:22 15° W visible
